Probability
0 0 0 0 0 0 0 0 0 0 0 0 0 0 0 0 0 0 0 0 0 0 0 0 0 0 0 0 0 0 0 0 0 0 0 0 0 0 0 0 0 0 0
0 0 0 0 0 0 0 0 0 0 0 0 0 0 0 0 0 0 0 0 0 0 0 0 0 0 0 0 0 0 0 0 0 0 0 0 0 0 0 0 0 0 0
0 0 0 0 0 0 0 0 0 0 0 0 0 0 0 0 0 0 0 0 0 0 0 0 0 0 0 0 0 0 0 0 0 0 0 0 0 0 0 0 0 0 0
0 0 0 0 0 0 0 0 0 0 0 0 0 0 0 0 0 0 0 0 0 0 0 0 0 0 0 0 0 0 0 0 0 0 0 0 0 0 0 0 0 0 0
0 0 0 0 0 0 0 0 0 0 0 0 0 0 0 0 0 0 0 0 0 0 0 0 0 0 0 0 0 0 0 0 0 0 0 0 0 0 0 0 0 0 0
0 0 0 0 0 0 0 0 0 0 0 0 0 0 0 0 0 0 0 0 0 0 0 0 0 0 0 0 0 0 0 0 0 0 0 0 0 0 0 0 0 0 0
0 0 0 0 0 0 0 0 0 0 0 0 0 0 0 0 0 0 0 0 0 0 0 0 0 0 0 0 0 0 0 0 0 0 0 0 0 0 0 0 0 0 0
0 0 0 0 0 0 0 0 0 0 0 0 0 0 0 0 0 0 0 0 0 0 0 0 0 0 0 0 0 0 0 0 0 0 0 0 0 0 0 0 0 0 0
0 0 0 0 0 0 0 0 0 0 0 0 0 0 0 0 0 0 0 0 0 0 0 0 0 0 0 0 0 0 0 0 0 0 0 0 0 0 0 0 0 0 0
0 0 0 0 0 0 0 0 0 0 0 0 0 0 0 0 0 0 0 0 0 0 0 0 0 0 0 0 0 0 0 0 0 0 0 0 0 0 0 0 0 0 0
0 0 0 0 0 0 0 0 0 0 0 0 0 0 0 0 0 0 0 0 0 0 0 0 0 0 0 0 0 0 0 0 0 0 0 0 0 0 0 0 0 0 0
0 0 0 0 0 0 0 0 0 0 0 0 0 0 0 0 0 0 0 0 0 0 0 0 0 0 0 0 0 0 0 0 0 0 0 0 0 0 0 0 0 0 0
0 0 0 0 0 0 0 0 0 0 0 0 0 0 0 0 0 0 0 0 0 0 0 0 0 0 0 0 0 0 0 0 0 0 0 0 0 0 0 0 0 0 0
0 0 0 0 0 0 0 0 0 0 0 0 0 0 0 0 0 0 0 0 0 0 0 0 0 0 0 0 0 0 0 0 0 0 0 0 0 0 0 0 0 0 0
0 0 0 0 0 0 0 0 0 0 0 0 0 0 0 0 0 0 0 0 0 0 0 0 0 0 0 0 0 0 0 0 0 0 0 0 0 0 0 0 0 0 0
0 0 0 0 0 0 0 0 0 0 0 0 0 0 0 0 0 0 0 0 0 0 0 0 0 0 0 0 0 0 0 0 0 0 0 0 0 0 0 0 0 0 0
0 0 0 0 0 0 0 0 0 0 0 0 0 0 0 0 0 0 0 0 0 0 0 0 0 0 0 0 0 0 0 0 0 0 0 0 0 0 0 0 0 0 0
0 0 0 0 0 0 0 0 0 0 0 0 0 0 0 0 0 0 0 0 0 0 0 0 0 0 0 0 0 0 0 0 0 0 0 0 0 0 0 0 0 0 0
0 0 0 0 0 0 0 0 0 0 0 0 0 0 0 0 0 0 0 0 0 0 0 0 0 0 0 0 0 0 0 0 0 0 0 0 0 0 0 0 0 0 0
0 0 0 0 0 0 0 0 0 0 0 0 0 0 0 0 0 0 0 0 0 0 0 0 0 0 0 0 0 0 0 0 0 0 0 0 0 0 0 0 0 0 0
0 0 0 0 0 0 0 0 0 0 0 0 0 0 0 0 0 0 0 0 0 0 0 0 0 0 0 0 0 0 0 0 0 0 0 0 0 0 0 0 0 0 0
0 0 0 0 0 0 0 0 0 0 0 0 0 0 0 0 0 0 0 0 0 0 0 0 0 0 0 0 0 0 0 0 0 0 0 0 0 0 0 0 0 0 0
0 0 0 0 0 0 0 0 0 0 0 0 0 0 0 0 0 0 0 0 0 0 0 0 0 0 0 0 0 0 0 0 0 0 0 0 0 0 0 0 0 0 0
0 0 0 0 0 0 0 0 0 0 0 0 0 0 0 0 0 0 0 0 0 0 0 0 0 0 0 0 0 0 0 0 0 0 0 0 0 0 0 0 0 0 0
0 0 0 0 0 0 0 0 0 0 0 0 0 0 0 0 0 0 0 0 0 0 0 0 0 0 0 0 0 0 0 0 0 0 0 0 0 0 0 0 0 0 0
0 0 0 0 0 0 0 0 0 0 0 0 0 0 0 0 0 0 0 0 0 0 0 0 0 0 0 0 0 0 0 0 0 0 0 0 0 0 0 0 0 0 0
Height
5627 5628 5628 5629 5630 5631 5632 5633 5635 5636 5638 5640 5642 5644 5646 5647 5649 5650 5652 5653 5655 5656 5658 5659 5661 5663 5663 5665 5666 5667 5669 5670 5673 5676 5677 5678 5679 5680 5682 5683 5684 5686 5687
5626 5625 5625 5626 5626 5626 5627 5627 5628 5629 5630 5632 5633 5634 5635 5637 5637 5638 5640 5640 5641 5642 5644 5645 5646 5647 5649 5650 5651 5653 5654 5656 5657 5660 5662 5663 5664 5666 5668 5669 5671 5672 5674
5624 5623 5622 5622 5621 5621 5621 5621 5621 5621 5622 5623 5623 5624 5625 5625 5625 5626 5626 5627 5628 5628 5628 5629 5630 5631 5633 5634 5636 5637 5639 5640 5641 5644 5646 5648 5650 5651 5653 5654 5656 5658 5660
5621 5620 5618 5617 5616 5615 5614 5613 5613 5613 5613 5613 5614 5614 5613 5613 5613 5612 5612 5613 5613 5613 5613 5613 5614 5615 5616 5618 5619 5621 5622 5623 5625 5626 5629 5631 5634 5635 5637 5639 5641 5643 5645
5617 5615 5613 5612 5610 5608 5607 5606 5605 5604 5604 5603 5603 5602 5601 5600 5600 5599 5598 5597 5597 5597 5596 5596 5597 5597 5598 5600 5601 5603 5604 5606 5607 5609 5611 5614 5617 5619 5621 5623 5625 5627 5628
5612 5610 5608 5606 5603 5601 5599 5597 5596 5594 5593 5592 5591 5590 5588 5586 5585 5583 5582 5581 5580 5580 5579 5579 5578 5579 5579 5581 5582 5584 5586 5587 5589 5591 5594 5596 5599 5602 5604 5605 5607 5609 5612
5607 5604 5602 5599 5596 5594 5591 5588 5586 5584 5582 5580 5577 5575 5573 5571 5569 5567 5565 5563 5562 5561 5561 5560 5559 5559 5559 5560 5562 5564 5566 5567 5570 5572 5575 5578 5581 5584 5585 5587 5589 5592 5595
5600 5597 5594 5591 5588 5585 5582 5579 5576 5573 5570 5567 5563 5560 5558 5554 5551 5548 5546 5544 5543 5542 5540 5540 5539 5539 5539 5540 5541 5543 5545 5548 5550 5552 5555 5559 5561 5563 5565 5568 5571 5573 5577
5594 5590 5587 5583 5579 5576 5572 5568 5564 5561 5557 5553 5549 5545 5541 5537 5533 5529 5526 5524 5522 5521 5520 5519 5518 5519 5519 5520 5521 5523 5525 5526 5528 5530 5534 5537 5540 5543 5546 5548 5552 5555 5559
5586 5582 5578 5574 5570 5566 5561 5557 5552 5548 5543 5538 5533 5527 5523 5518 5514 5510 5505 5503 5502 5500 5499 5498 5497 5497 5498 5497 5498 5500 5502 5505 5507 5510 5512 5516 5519 5522 5526 5529 5533 5537 5541
5577 5573 5568 5564 5559 5555 5550 5544 5539 5533 5528 5522 5516 5510 5504 5499 5494 5490 5485 5482 5480 5479 5478 5477 5476 5476 5476 5476 5476 5478 5480 5482 5485 5488 5491 5495 5498 5502 5507 5511 5515 5519 5524
5568 5563 5558 5553 5548 5542 5536 5530 5524 5518 5512 5505 5499 5492 5486 5480 5475 5470 5466 5462 5459 5457 5456 5455 5454 5454 5454 5454 5455 5457 5459 5461 5464 5467 5470 5475 5479 5484 5489 5493 5497 5502 5507
5557 5552 5546 5540 5534 5528 5521 5515 5508 5501 5494 5488 5481 5475 5469 5463 5457 5452 5448 5444 5440 5438 5436 5434 5433 5432 5432 5434 5435 5436 5437 5440 5443 5447 5451 5455 5460 5465 5469 5475 5480 5485 5491
5546 5540 5534 5528 5521 5513 5506 5499 5492 5485 5478 5471 5465 5458 5452 5446 5440 5435 5430 5426 5422 5419 5417 5415 5413 5413 5413 5413 5414 5415 5417 5419 5423 5427 5432 5437 5441 5446 5452 5458 5464 5469 5475
5535 5528 5522 5515 5508 5500 5492 5485 5477 5470 5462 5455 5448 5442 5436 5430 5424 5418 5412 5408 5404 5401 5398 5397 5395 5393 5393 5393 5394 5395 5396 5399 5402 5407 5412 5418 5424 5430 5436 5442 5448 5454 5460
5523 5516 5509 5502 5495 5487 5480 5472 5462 5455 5447 5439 5432 5426 5420 5414 5409 5403 5397 5393 5388 5385 5381 5379 5377 5374 5373 5373 5373 5374 5376 5380 5384 5389 5394 5400 5407 5414 5420 5427 5433 5439 5445
5511 5504 5497 5490 5482 5474 5467 5459 5451 5442 5433 5425 5418 5411 5405 5399 5394 5388 5383 5378 5373 5369 5365 5362 5359 5357 5355 5355 5355 5357 5360 5363 5367 5372 5378 5384 5391 5398 5404 5411 5418 5424 5431
5500 5492 5485 5478 5470 5462 5455 5446 5438 5430 5423 5414 5406 5399 5392 5385 5379 5374 5369 5364 5359 5354 5349 5346 5343 5341 5340 5340 5341 5342 5345 5349 5353 5358 5363 5370 5376 5383 5390 5397 5404 5411 5417
5488 5481 5473 5466 5458 5450 5442 5434 5426 5418 5410 5402 5394 5387 5379 5373 5366 5360 5354 5349 5345 5340 5336 5332 5329 5327 5326 5326 5327 5329 5332 5336 5340 5345 5351 5357 5363 5370 5377 5384 5391 5398 5405
5476 5469 5462 5454 5447 5439 5431 5422 5414 5406 5398 5390 5382 5375 5368 5360 5354 5347 5341 5336 5332 5328 5324 5321 5318 5316 5315 5315 5316 5318 5321 5325 5329 5333 5339 5345 5352 5359 5365 5372 5379 5387 5394
5466 5458 5451 5443 5435 5428 5419 5411 5403 5394 5386 5378 5370 5363 5355 5348 5342 5336 5330 5325 5321 5317 5314 5311 5309 5307 5306 5306 5307 5309 5312 5316 5320 5324 5329 5335 5342 5349 5355 5362 5369 5376 5384
5455 5448 5440 5433 5425 5417 5409 5400 5392 5383 5375 5367 5359 5351 5344 5338 5332 5326 5321 5317 5313 5309 5306 5304 5302 5300 5299 5299 5300 5302 5305 5308 5312 5316 5321 5327 5333 5339 5346 5353 5360 5368 5375
5445 5437 5430 5422 5415 5407 5398 5390 5382 5373 5365 5357 5349 5342 5336 5329 5324 5319 5314 5310 5306 5303 5300 5297 5296 5295 5294 5294 5295 5297 5299 5302 5306 5309 5314 5319 5325 5332 5338 5345 5352 5360 5367
5435 5428 5420 5413 5405 5397 5388 5380 5372 5364 5356 5349 5341 5335 5328 5322 5317 5312 5308 5304 5300 5297 5294 5292 5291 5290 5290 5290 5291 5292 5294 5297 5300 5304 5309 5314 5319 5326 5332 5339 5345 5352 5359
5425 5418 5411 5403 5395 5387 5379 5371 5363 5356 5348 5341 5334 5328 5322 5316 5311 5307 5303 5299 5296 5293 5290 5288 5287 5286 5286 5286 5287 5288 5290 5293 5296 5300 5305 5309 5314 5320 5326 5332 5339 5346 5352
5416 5408 5401 5394 5386 5378 5371 5363 5356 5348 5341 5335 5328 5322 5317 5312 5307 5302 5299 5295 5292 5289 5287 5285 5283 5283 5283 5283 5284 5285 5287 5290 5293 5297 5301 5306 5310 5315 5321 5327 5334 5340 5347
Wind_Speed
12 14 16 18 21 23 25 27 29 31 33 34 36 39 41 43 45 48 50 51 54 55 56 57 57 57 57 56 56 57 57 56 55 54 53 53 53 53 52 51 50 47 46
11 12 14 17 20 23 25 27 29 32 34 35 37 39 42 43 45 47 48 50 51 54 56 57 58 58 58 58 58 57 56 56 57 56 55 55 54 54 54 53 52 50 48
12 13 14 16 18 21 23 26 28 31 33 35 38 40 42 43 44 46 48 51 52 54 55 57 58 59 59 60 59 59 58 58 58 58 58 58 56 56 56 55 53 52 51
14 15 16 18 20 22 24 26 28 31 33 35 38 40 41 43 44 46 48 52 54 54 56 57 59 60 60 61 61 62 62 61 60 60 61 61 59 58 58 57 55 54 53
16 17 19 20 22 24 25 28 30 32 34 36 38 40 42 44 47 48 50 51 54 55 56 58 59 61 62 62 63 63 63 63 63 62 62 62 60 59 58 58 57 56 56
18 19 20 22 23 25 26 29 31 33 35 37 40 42 44 47 49 51 52 53 55 56 57 58 59 61 63 63 64 64 64 64 64 63 62 61 60 59 58 59 58 57 57
22 22 24 25 26 27 29 30 32 34 37 39 41 44 46 49 51 52 54 56 57 58 59 60 60 61 62 63 63 63 64 64 64 63 62 61 61 60 60 60 59 59 58
26 27 28 29 30 31 32 34 36 37 39 41 44 46 48 50 52 54 56 57 58 60 61 61 61 61 62 63 64 65 65 65 65 65 64 62 62 61 60 60 60 60 60
29 30 32 33 34 35 36 38 39 41 43 45 47 50 51 53 55 56 57 58 58 59 60 61 61 62 63 65 66 67 67 67 67 67 66 63 61 61 62 62 61 60 59
32 33 35 36 37 39 40 42 44 45 47 49 50 51 53 54 55 55 56 57 57 57 58 60 60 61 62 63 64 65 66 66 66 66 65 64 63 61 61 61 60 59 58
35 36 37 39 41 43 44 46 47 49 50 51 51 52 53 54 55 55 56 57 57 57 57 59 60 61 62 62 62 63 64 64 64 64 63 63 62 61 60 59 58 58 57
38 39 40 42 44 46 47 48 50 51 51 52 52 53 53 54 54 54 55 56 56 56 57 58 59 60 61 61 62 62 62 63 63 63 63 61 61 60 59 58 57 56 55
41 42 44 45 46 48 49 50 51 52 52 52 53 53 52 52 52 52 53 54 55 55 56 57 58 58 59 60 61 62 62 61 62 61 60 60 59 59 58 57 55 53 52
42 44 45 46 48 49 50 51 51 52 52 52 52 52 51 51 51 51 52 52 52 53 53 55 56 57 58 59 59 60 61 60 59 59 58 57 57 57 56 55 54 53 51
44 45 46 47 48 49 50 50 51 52 52 52 51 50 49 49 49 49 49 49 49 50 50 51 53 55 56 57 57 58 58 57 56 56 56 55 54 53 53 53 53 51 50
45 45 47 48 49 49 50 50 51 51 51 50 50 48 48 48 47 47 47 47 47 48 48 48 49 50 51 52 52 51 51 52 53 54 54 53 53 52 52 52 51 51 50
45 46 47 48 49 49 49 49 49 50 50 49 48 48 47 47 47 47 46 46 46 47 48 47 47 46 45 45 45 46 46 47 48 49 50 51 51 51 51 52 51 51 49
46 47 47 48 49 49 49 49 49 48 47 47 47 47 47 46 46 46 45 45 44 44 44 43 42 40 40 40 40 40 41 42 43 45 46 47 47 48 48 48 48 48 47
46 47 47 48 48 48 48 48 48 48 47 47 46 46 46 45 45 45 44 43 42 40 39 37 36 35 35 35 35 35 37 38 39 41 42 43 43 45 45 46 46 46 45
46 47 47 48 48 47 48 48 47 47 47 47 46 45 44 44 43 42 40 39 37 35 34 32 31 30 30 30 30 31 32 33 35 37 39 40 40 41 42 43 44 44 44
46 46 46 46 46 46 46 47 47 47 46 46 45 44 43 41 40 38 36 33 31 30 28 27 26 25 25 25 25 26 27 29 31 33 35 36 37 38 39 40 42 42 42
45 45 45 45 45 46 46 46 46 46 45 44 43 41 39 37 35 33 30 28 26 26 25 24 22 21 20 20 21 22 24 25 27 29 31 33 34 36 37 38 40 40 40
44 44 44 45 45 46 46 45 45 44 43 41 39 37 35 33 31 28 27 25 24 23 22 21 19 17 17 17 18 20 21 22 24 26 28 30 32 33 35 36 38 38 39
44 44 44 44 45 45 44 43 42 41 40 39 37 35 33 30 27 25 24 23 22 21 19 18 16 16 15 16 17 18 18 20 22 24 26 28 30 32 33 34 36 36 37
43 43 43 44 44 43 42 41 40 39 38 36 34 32 30 27 24 22 21 20 19 17 16 15 13 13 13 13 14 16 16 18 20 22 24 26 28 31 32 33 34 35 35
43 43 42 42 42 41 40 39 38 37 35 33 31 29 26 24 22 20 19 18 16 15 14 13 12 11 11 11 12 14 15 16 18 20 22 24 26 29 31 32 33 33 34
Wind_Direction
262 257 253 252 252 252 253 253 253 253 252 252 251 250 251 252 253 253 254 254 254 255 255 256 256 256 257 259 259 260 261 262 263 263 261 261 263 264 264 265 266 266 265
274 268 266 266 265 262 260 259 258 256 255 254 254 253 253 255 256 256 256 257 257 257 257 257 257 258 258 260 260 261 261 262 263 262 261 261 263 263 264 265 265 263 263
288 279 275 273 271 268 265 263 262 260 258 257 257 258 258 259 258 259 259 259 260 260 260 259 259 259 259 259 260 261 261 263 263 262 260 261 262 262 262 264 264 263 263
292 287 284 280 277 273 270 268 266 265 265 264 263 263 263 262 262 262 262 261 261 261 262 261 260 261 260 260 260 261 262 263 263 261 261 261 261 262 262 262 263 263 263
298 290 287 285 284 281 279 275 272 271 271 270 268 268 267 266 266 265 265 265 263 263 263 262 262 261 260 260 260 261 261 261 261 261 261 260 260 260 260 261 262 261 261
304 300 294 292 290 287 285 281 278 277 275 275 274 272 271 270 270 269 268 267 266 265 264 264 263 262 261 260 260 260 260 259 259 260 260 259 259 259 260 260 261 261 262
305 303 300 296 295 292 290 288 285 283 281 279 278 276 276 275 273 272 271 270 268 267 266 265 264 264 263 261 259 258 258 258 258 258 259 260 259 259 260 261 261 261 262
303 301 299 297 296 295 293 292 290 288 286 284 282 281 280 278 276 275 273 272 270 268 267 267 265 265 263 261 260 259 258 259 259 258 258 258 259 259 259 260 260 260 261
304 303 302 300 298 296 295 294 292 291 289 288 286 283 282 280 279 277 275 273 271 270 268 267 266 265 264 263 261 260 260 260 259 258 258 258 258 258 257 257 258 259 258
304 303 302 302 301 299 297 296 295 293 291 290 288 286 284 282 280 279 277 275 273 271 269 268 267 266 265 264 263 261 261 260 259 258 258 257 257 258 256 256 256 256 256
305 303 303 302 302 301 300 298 297 296 294 293 291 289 287 285 284 281 279 277 275 273 271 269 268 266 265 264 263 262 260 260 259 258 257 257 256 255 255 254 253 254 254
306 305 303 303 303 302 301 300 299 297 296 295 293 291 289 288 286 283 281 280 278 275 273 271 269 267 265 264 263 262 261 259 258 256 256 256 254 253 253 252 252 251 252
306 306 305 305 305 304 303 302 302 300 298 297 295 293 291 290 288 286 284 282 279 277 275 273 270 268 266 264 263 261 260 258 257 256 254 253 251 251 251 250 249 248 248
307 307 307 307 307 306 306 305 304 303 301 300 298 295 293 292 290 288 286 284 282 280 277 274 271 269 267 266 264 262 260 258 256 253 251 249 248 246 246 246 246 245 245
310 309 309 309 309 309 308 308 307 306 304 302 300 297 295 294 292 291 289 287 285 283 281 278 273 270 268 266 265 263 260 258 254 250 247 245 244 242 241 242 243 243 242
311 310 310 311 311 310 310 309 309 308 306 304 302 300 298 296 295 293 291 289 287 285 283 281 278 274 270 267 264 262 258 255 252 249 246 244 242 240 238 238 239 239 239
311 311 312 312 312 312 311 311 311 309 308 307 305 303 301 299 297 295 293 290 289 287 285 282 279 276 271 267 264 259 255 252 249 246 244 242 239 238 237 237 237 237 237
312 312 312 313 313 313 313 313 312 311 310 309 307 306 304 302 299 297 295 293 291 289 287 283 280 275 270 266 262 258 253 250 248 245 242 240 238 237 236 235 235 235 235
312 313 313 314 313 313 314 314 314 313 312 311 309 308 306 304 301 299 297 294 292 291 289 285 280 276 271 265 260 256 251 247 244 241 237 235 235 235 234 232 230 229 229
313 313 314 314 314 314 315 315 315 315 314 312 311 310 308 306 304 302 299 296 294 292 290 286 281 275 271 266 258 253 248 244 241 237 234 232 230 231 230 228 226 225 226
314 314 315 315 316 316 317 317 317 317 316 315 313 312 310 308 306 304 302 298 296 293 291 287 283 277 271 264 256 248 243 240 238 235 232 230 229 228 227 224 222 223 224
316 316 316 317 317 318 318 318 319 319 319 317 316 315 313 311 309 307 304 300 297 296 293 288 284 278 271 263 252 245 241 238 236 233 230 227 226 225 224 221 220 220 220
317 317 317 318 319 319 320 320 321 321 321 321 320 319 317 314 311 309 306 303 301 299 295 291 285 274 267 260 250 244 241 236 233 229 226 223 221 220 219 218 217 218 219
318 318 318 319 320 321 322 322 323 324 324 323 323 322 321 317 314 311 309 308 305 301 296 290 282 275 268 259 250 244 239 231 226 223 220 218 217 216 216 216 215 216 216
318 318 318 319 320 321 322 324 324 325 326 326 325 325 324 322 318 315 314 314 310 306 300 292 283 275 269 260 248 239 234 228 223 221 218 216 215 214 214 214 213 214 214
318 319 319 320 321 322 323 324 326 326 327 328 328 328 327 326 323 320 319 318 315 310 305 299 290 277 265 254 242 232 226 222 218 215 214 214 214 214 213 212 211 212 213